Location: Unspecified
(34.4950°S, 58.5160°W)
Time: 15:58:07
(UTC+00:00)

Cosmos 1655 Rocket - Pass Details

Date: 30 June 2022
Orbit: 971 x 1005 km, 83.0° (Epoch: 11 August)

Event Time Altitude Azimuth Distance (km) Brightness Sun altitude
Rises 09:14:57 0° 165° (SSE) 3,748 7.1 -21.3°
Reaches altitude 10° 09:19:09 10° 138° (SE) 2,781 6.7 -20.5°
Maximum altitude 09:22:05 13° 111° (ESE) 2,526 6.9 -19.9°
Drops below altitude 10° 09:25:00 10° 83° (E) 2,756 7.6 -19.3°
Sets 09:29:05 0° 57° (ENE) 3,685 8.4 -18.5°
